Wind_Speed
22 25 23 22 19 13 12 12 13 14 16 22 26 29 34 46 58 67 75 77 78 76 89 92 90 91 91 88 89 89 82 84 86 89 94 88 83 80 76 78 77 71 69 68 68
24 22 21 24 26 24 23 21 20 19 22 24 25 31 35 41 46 52 59 68 75 81 87 90 97 96 96 99 96 93 93 92 94 97 99 93 89 86 83 79 79 78 78 77 74
29 30 29 26 26 26 30 31 31 32 34 32 33 35 39 47 52 56 55 56 60 66 74 84 87 92 94 97 96 98 96 101 101 105 104 97 94 91 89 88 86 87 86 85 83
34 34 32 37 36 35 34 38 39 42 41 44 42 42 42 53 59 58 55 61 65 66 68 72 75 79 86 92 98 97 99 101 104 105 104 105 104 97 96 99 95 92 93 94 92
41 41 42 41 43 43 46 46 48 51 52 50 49 49 49 53 69 56 61 64 68 70 72 73 72 73 75 81 88 92 94 99 105 105 104 104 102 101 97 99 98 95 96 98 100
47 45 44 45 48 51 55 58 57 60 60 61 57 55 53 61 68 64 63 70 73 73 74 76 79 79 76 74 77 79 85 91 97 101 103 104 104 104 102 101 99 95 92 92 95
52 51 52 51 53 56 62 64 65 64 66 68 68 62 61 66 70 70 71 68 71 75 79 82 81 80 79 77 75 75 76 78 82 88 94 98 101 100 100 104 106 109 105 102 101
56 55 56 61 62 64 68 70 72 72 72 73 72 71 63 73 78 76 76 76 75 76 79 85 86 83 80 78 77 76 75 73 71 75 78 84 76 79 80 87 86 90 97 108 111
60 60 62 66 73 73 73 74 75 76 79 80 79 82 80 81 84 85 85 83 83 85 86 87 85 85 84 81 80 74 69 65 69 71 74 70 66 68 72 74 75 77 76 80 87
70 68 70 73 76 78 82 83 83 81 81 87 89 91 97 97 96 95 94 92 93 90 93 93 89 80 82 80 69 70 75 71 72 71 75 72 67 69 71 71 70 72 70 67 66
77 78 76 78 79 85 87 87 90 92 91 92 98 100 105 110 107 105 101 99 95 97 98 101 100 86 68 78 85 85 84 83 82 80 80 79 78 74 77 74 69 64 63 66 65
81 82 79 85 85 87 87 95 99 103 95 99 105 111 105 106 107 111 110 110 107 103 108 108 97 82 94 85 84 89 88 85 85 85 83 81 79 77 77 75 72 71 69 64 67
87 86 90 88 92 97 98 102 103 109 119 99 104 110 111 109 114 115 113 115 111 113 112 111 95 108 102 97 94 91 90 90 90 89 85 82 81 79 77 75 70 66 69 69 67
90 93 94 90 96 96 98 109 112 117 123 119 114 110 103 99 96 101 107 107 108 115 120 119 101 108 107 99 99 96 94 95 95 93 90 89 84 81 76 70 65 64 63 61 64
101 101 101 97 98 99 101 105 114 117 120 110 97 84 78 75 74 77 83 85 90 102 111 102 108 113 112 100 102 97 101 99 100 98 95 92 87 77 75 66 63 63 60 58 54
105 100 101 99 99 106 110 111 114 115 103 89 76 69 63 59 58 61 64 72 77 82 88 99 107 113 109 109 107 112 107 109 108 104 102 87 87 76 71 65 66 62 60 57 52
105 106 102 100 104 107 109 109 109 97 83 73 66 59 53 49 48 48 53 59 65 70 77 83 90 103 110 115 116 117 116 113 112 108 88 92 90 71 70 67 67 63 61 57 56
111 104 106 110 107 108 108 108 95 80 71 62 56 50 43 41 42 42 46 53 58 62 69 71 77 88 97 101 114 115 111 111 106 96 83 87 83 73 66 68 65 63 60 60 58
115 114 119 111 108 107 102 92 79 71 62 54 47 42 38 35 36 35 38 43 49 52 60 65 68 76 82 94 104 113 117 111 113 105 100 91 85 78 75 71 72 67 62 59 62
121 119 116 108 105 98 87 78 70 58 51 44 37 33 31 27 27 29 31 33 40 46 52 58 59 61 69 81 93 104 104 117 115 109 104 90 86 82 75 72 72 68 63 62 62
127 128 113 107 96 86 77 67 56 47 40 34 29 27 27 23 24 24 24 28 33 39 43 44 49 53 58 61 75 87 105 111 113 110 104 95 87 83 76 74 73 67 64 63 62
129 117 108 103 89 79 67 56 46 38 32 29 26 25 22 18 16 14 19 24 29 32 34 34 39 42 48 58 66 74 89 101 102 100 98 95 90 87 78 76 74 70 65 63 61
124 111 107 93 82 69 57 48 40 34 29 25 23 20 17 14 11 10 17 20 23 24 26 26 31 35 36 44 51 60 72 90 101 106 101 93 83 81 76 75 75 71 65 63 59
118 105 102 85 73 61 51 43 35 30 26 21 18 15 13 11 7 9 13 14 16 17 18 24 28 29 32 36 45 49 58 70 81 91 94 89 84 84 82 80 79 76 72 64 57
110 106 94 80 67 57 49 40 34 28 24 19 17 13 10 7 6 10 10 11 14 17 22 26 27 24 24 29 37 42 50 57 64 77 83 86 84 84 84 82 78 76 70 64 58
107 100 87 73 62 54 46 37 31 28 24 19 15 9 4 2 6 9 11 15 18 23 26 30 32 28 24 27 30 30 34 43 56 66 73 81 83 85 85 81 74 67 60 58 57
108 100 84 70 59 52 43 35 30 26 19 13 7 3 3 5 7 13 16 20 25 27 28 27 28 28 25 19 16 15 22 32 44 53 61 65 68 68 65 65 62 58 59 57 55
Wind_Direction
353 351 349 348 346 344 345 331 327 309 302 292 285 273 266 255 251 250 249 248 250 250 248 247 248 248 248 249 249 249 249 249 250 252 251 249 250 253 252 254 255 254 250 253 254
338 336 335 331 328 324 319 310 304 299 297 295 283 277 272 266 260 254 251 251 252 252 249 249 251 251 250 251 250 249 249 249 249 253 254 253 252 253 254 254 258 257 254 253 250
333 328 322 317 311 308 309 308 301 301 296 290 281 268 261 260 259 256 255 255 252 250 252 254 252 250 251 252 250 248 249 248 250 252 253 253 254 253 254 255 255 256 257 256 255
325 320 315 313 311 308 303 302 303 298 295 289 285 278 268 258 255 252 256 255 253 253 252 251 251 251 250 250 247 249 250 251 251 254 251 253 253 253 257 258 257 256 254 257 257
322 319 316 309 310 305 303 302 301 297 292 288 284 281 275 267 260 251 254 255 254 252 252 250 250 251 250 249 249 249 250 249 248 252 252 252 255 255 259 259 259 258 257 257 258
320 314 310 307 305 304 301 301 299 296 292 290 282 279 272 262 259 265 255 253 254 254 253 251 249 248 250 250 250 249 248 247 248 249 251 252 251 253 255 256 256 255 251 251 254
320 316 310 303 303 301 299 299 295 292 289 288 285 281 278 266 263 265 259 261 255 253 252 253 249 248 247 246 246 247 249 247 246 248 250 251 250 251 251 251 251 251 250 252 253
321 318 315 308 304 300 299 298 296 292 288 286 282 279 274 267 269 268 262 259 257 255 251 250 251 250 248 246 244 244 244 247 250 250 249 247 247 249 247 248 248 249 251 253 254
323 318 315 307 304 301 297 295 294 290 288 286 283 281 275 270 267 264 263 258 255 253 250 248 246 247 246 245 242 243 244 248 249 246 246 247 241 247 244 246 246 247 247 250 252
323 317 312 309 305 303 302 296 294 289 285 284 281 275 276 273 269 267 261 256 256 251 251 252 253 246 243 243 244 244 240 239 241 240 239 237 237 241 245 245 248 249 251 254 255
322 318 316 313 309 306 300 297 288 289 285 285 282 277 275 271 270 266 260 257 253 254 256 249 248 251 249 240 235 234 233 234 235 237 240 239 241 243 248 251 252 252 252 251 254
321 320 315 312 308 304 295 292 290 288 283 278 277 278 275 273 271 267 265 261 256 251 249 250 251 248 245 238 236 237 234 236 236 239 240 243 241 243 247 251 254 255 255 254 254
323 317 313 309 306 303 297 295 291 288 288 284 280 281 280 275 271 269 264 258 257 252 250 247 246 241 240 238 234 236 236 235 238 239 239 241 243 244 244 248 252 254 253 253 255
320 315 312 311 307 306 298 296 295 293 294 293 292 287 283 279 274 270 266 264 260 254 252 247 242 243 243 238 236 235 237 237 237 237 239 240 240 243 245 247 252 255 254 255 257
319 315 312 310 308 309 302 300 299 300 300 301 299 292 285 277 269 264 263 258 255 252 251 250 241 238 239 240 238 237 238 238 238 238 236 239 241 243 246 249 252 254 254 254 255
321 316 314 313 313 310 305 305 304 306 306 303 301 294 287 280 271 262 256 254 252 248 245 242 239 237 235 232 233 235 235 237 236 236 236 237 242 241 247 247 250 252 252 253 257
320 321 317 317 317 313 311 312 311 310 309 305 300 295 289 280 270 260 254 251 248 248 245 240 237 235 232 229 229 232 233 235 236 237 239 240 242 240 243 247 248 253 254 254 256
328 325 324 323 319 316 316 314 315 314 312 307 302 296 288 277 266 257 250 247 244 240 242 240 236 234 232 230 229 231 233 237 241 242 244 243 245 244 245 247 249 251 254 253 255
331 330 330 325 320 320 319 318 318 316 312 308 304 295 286 276 269 259 251 246 244 239 238 238 235 233 231 227 225 227 228 231 236 236 235 237 241 241 241 242 247 248 251 251 251
335 331 330 327 324 322 322 322 319 316 312 311 305 299 292 280 266 258 251 246 243 239 235 235 235 234 230 229 226 223 226 229 231 232 235 238 240 240 241 242 245 248 248 249 250
334 332 329 328 328 326 326 323 320 318 318 314 313 307 296 290 276 265 248 242 237 239 238 234 231 227 229 228 228 226 223 225 226 227 233 235 236 240 240 243 244 246 247 247 251
334 332 333 332 332 331 329 326 324 322 322 319 320 314 302 276 267 248 244 238 237 232 232 230 225 225 225 224 221 223 221 224 229 231 233 232 232 237 237 240 243 245 243 246 250
334 335 334 336 335 334 332 331 330 328 329 330 322 314 301 281 274 254 238 235 233 231 224 216 215 217 214 222 221 220 221 222 223 224 227 231 232 236 237 238 240 242 245 248 250
335 337 338 339 336 338 338 335 336 339 337 333 325 323 310 293 272 222 220 225 218 215 200 190 194 199 201 207 220 214 217 221 222 224 225 226 226 231 235 237 238 241 245 246 248
337 340 341 341 342 345 343 344 346 348 345 343 339 333 318 292 212 192 185 195 179 172 174 173 172 177 190 208 219 217 214 214 218 221 222 225 227 229 232 234 237 242 243 246 246
339 343 342 343 347 349 348 352 354 355 354 351 347 334 348 106 196 156 153 159 153 153 160 155 154 162 174 200 219 221 216 217 214 215 220 225 227 231 235 238 239 239 240 242 241
341 344 344 347 351 353 351 353 358 357 352 352 347 21 101 125 135 131 138 144 143 147 157 161 164 169 180 200 220 215 206 201 204 207 209 216 222 227 229 230 231 232 236 239 242
Height
10847 10845 10843 10842 10842 10843 10841 10840 10839 10837 10836 10834 10832 10829 10827 10826 10823 10819 10818 10826 10825 10827 10827 10827 10829 10837 10843 10849 10853 10856 10868 10870 10864 10858 10848 10866 10878 10884 10892 10893 10898 10912 10916 10916 10916
10846 10844 10842 10839 10836 10835 10834 10834 10834 10832 10830 10828 10824 10821 10818 10815 10811 10806 10807 10809 10810 10811 10805 10808 10812 10818 10825 10829 10834 10837 10849 10850 10844 10840 10834 10853 10864 10872 10876 10881 10884 10891 10896 10900 10903
10841 10838 10836 10834 10832 10829 10826 10824 10823 10821 10818 10818 10816 10812 10807 10800 10795 10790 10792 10793 10792 10790 10788 10789 10795 10800 10803 10805 10813 10813 10829 10826 10828 10821 10825 10838 10844 10854 10861 10865 10872 10874 10873 10880 10886
10832 10828 10826 10821 10819 10817 10816 10813 10810 10807 10805 10802 10798 10796 10794 10788 10775 10777 10780 10776 10772 10772 10771 10771 10773 10778 10781 10783 10787 10796 10804 10808 10805 10801 10816 10818 10824 10839 10841 10838 10852 10860 10860 10860 10867
10821 10817 10813 10809 10805 10801 10797 10795 10793 10791 10788 10785 10782 10779 10777 10769 10747 10770 10763 10758 10753 10753 10752 10753 10756 10754 10759 10761 10766 10780 10784 10787 10781 10787 10797 10802 10809 10815 10820 10819 10831 10840 10842 10843 10844
10811 10805 10801 10795 10791 10785 10779 10776 10775 10770 10764 10760 10761 10761 10759 10746 10736 10741 10743 10736 10733 10735 10734 10735 10735 10737 10744 10750 10751 10758 10760 10765 10765 10770 10778 10785 10785 10794 10801 10797 10809 10815 10822 10823 10827
10797 10791 10784 10778 10774 10768 10759 10757 10752 10748 10741 10734 10730 10732 10735 10720 10713 10718 10715 10716 10715 10715 10715 10709 10713 10719 10724 10729 10735 10742 10743 10747 10751 10751 10759 10764 10771 10777 10774 10772 10783 10791 10797 10803 10810
10785 10778 10770 10758 10753 10749 10739 10733 10723 10719 10714 10709 10707 10703 10711 10695 10684 10687 10689 10693 10692 10690 10689 10687 10688 10697 10707 10712 10716 10721 10726 10732 10738 10737 10741 10741 10759 10748 10748 10748 10758 10764 10772 10786 10792
10770 10761 10754 10741 10728 10722 10718 10713 10707 10696 10686 10676 10672 10666 10669 10665 10658 10655 10653 10657 10661 10658 10657 10654 10663 10672 10680 10689 10695 10705 10720 10726 10720 10720 10717 10723 10735 10724 10727 10730 10738 10746 10753 10762 10773
10753 10744 10735 10723 10711 10700 10689 10678 10672 10666 10661 10649 10643 10636 10627 10622 10619 10618 10617 10622 10625 10629 10626 10627 10637 10649 10658 10669 10692 10695 10694 10701 10698 10698 10696 10703 10711 10710 10708 10713 10721 10733 10741 10748 10752
10732 10722 10710 10697 10684 10673 10665 10653 10639 10629 10630 10615 10599 10594 10587 10575 10582 10575 10574 10580 10592 10597 10596 10593 10597 10630 10655 10647 10640 10647 10657 10667 10671 10675 10677 10687 10691 10699 10695 10704 10713 10719 10725 10730 10734
10709 10697 10684 10671 10657 10642 10628 10613 10601 10585 10592 10578 10561 10544 10541 10533 10533 10523 10531 10538 10548 10558 10549 10555 10581 10625 10600 10614 10623 10625 10635 10645 10652 10656 10663 10665 10676 10682 10686 10693 10701 10709 10714 10717 10718
10686 10674 10661 10648 10630 10609 10591 10573 10556 10538 10525 10541 10519 10507 10494 10490 10478 10475 10480 10482 10500 10505 10512 10521 10568 10548 10565 10579 10594 10604 10613 10621 10625 10633 10641 10647 10655 10665 10675 10679 10689 10695 10699 10704 10705
10665 10652 10636 10622 10600 10576 10553 10531 10514 10496 10478 10471 10469 10458 10446 10441 10432 10428 10428 10438 10449 10459 10460 10471 10531 10524 10534 10552 10569 10582 10590 10595 10600 10607 10621 10627 10640 10649 10661 10670 10678 10683 10687 10691 10693
10642 10627 10607 10585 10566 10541 10515 10491 10471 10456 10434 10421 10414 10405 10398 10395 10391 10392 10390 10394 10401 10409 10415 10458 10482 10483 10496 10535 10542 10566 10563 10572 10574 10581 10593 10606 10618 10644 10651 10662 10667 10670 10674 10678 10680
10615 10596 10574 10548 10523 10499 10474 10455 10435 10415 10399 10378 10372 10365 10362 10360 10358 10358 10359 10360 10363 10372 10387 10404 10418 10435 10468 10493 10509 10513 10529 10535 10541 10551 10561 10604 10608 10633 10642 10650 10648 10654 10660 10665 10668
10585 10562 10537 10513 10489 10463 10438 10418 10398 10380 10366 10352 10342 10336 10334 10331 10330 10333 10333 10335 10343 10349 10355 10367 10389 10400 10426 10448 10469 10477 10490 10505 10516 10527 10578 10580 10589 10630 10628 10634 10638 10641 10647 10652 10654
10555 10528 10504 10479 10454 10429 10406 10383 10363 10351 10339 10328 10321 10315 10313 10309 10308 10311 10313 10315 10321 10329 10332 10346 10362 10375 10400 10424 10442 10467 10488 10498 10512 10537 10570 10568 10582 10612 10618 10617 10624 10630 10633 10638 10641
10526 10498 10475 10448 10420 10398 10375 10356 10341 10327 10316 10309 10304 10299 10295 10294 10293 10297 10299 10301 10304 10313 10319 10327 10340 10353 10373 10390 10410 10434 10446 10485 10485 10509 10523 10547 10569 10588 10594 10602 10606 10614 10620 10625 10627
10499 10473 10451 10423 10397 10373 10353 10335 10320 10311 10300 10294 10290 10286 10282 10283 10283 10282 10285 10291 10294 10297 10305 10313 10327 10342 10354 10371 10388 10406 10446 10440 10460 10486 10507 10539 10554 10568 10582 10588 10593 10600 10608 10610 10612
10473 10446 10422 10397 10375 10351 10334 10319 10307 10296 10289 10282 10278 10275 10273 10275 10274 10276 10278 10278 10283 10288 10296 10308 10318 10329 10340 10360 10372 10391 10406 10423 10442 10466 10495 10519 10539 10554 10567 10572 10577 10586 10593 10597 10600
10458 10423 10399 10370 10352 10332 10318 10305 10295 10286 10280 10272 10269 10267 10266 10265 10266 10267 10269 10270 10274 10281 10289 10301 10309 10321 10333 10337 10353 10372 10391 10416 10437 10466 10486 10503 10524 10534 10549 10553 10562 10571 10577 10584 10588
10442 10412 10380 10359 10336 10321 10307 10296 10286 10278 10273 10268 10263 10262 10260 10260 10260 10261 10261 10265 10268 10277 10286 10295 10305 10314 10328 10332 10345 10362 10379 10394 10418 10434 10461 10488 10513 10521 10533 10541 10548 10557 10564 10572 10578
10420 10401 10365 10347 10328 10313 10300 10289 10280 10273 10268 10263 10261 10259 10257 10257 10257 10257 10257 10262 10267 10274 10283 10290 10301 10312 10323 10330 10336 10354 10370 10384 10403 10427 10454 10473 10492 10503 10513 10522 10531 10539 10550 10560 10567
10407 10378 10355 10337 10320 10307 10295 10285 10277 10272 10267 10263 10261 10257 10255 10256 10255 10256 10258 10263 10268 10274 10281 10291 10301 10312 10322 10330 10337 10349 10362 10376 10396 10416 10438 10457 10473 10484 10491 10503 10515 10526 10538 10549 10556
10396 10377 10353 10333 10317 10305 10294 10284 10276 10271 10266 10263 10259 10258 10257 10256 10255 10257 10261 10266 10271 10277 10283 10292 10304 10314 10323 10331 10338 10350 10362 10374 10388 10405 10425 10441 10455 10469 10481 10494 10507 10519 10529 10537 10540
10387 10366 10344 10329 10315 10304 10296 10286 10279 10274 10271 10265 10262 10260 10258 10258 10259 10261 10264 10270 10276 10283 10291 10299 10309 10321 10328 10336 10343 10350 10359 10370 10382 10396 10412 10428 10444 10459 10474 10485 10495 10508 10515 10522 10528